Tracking 22458 objects as of 4-Mar-2021
HD Live streaming from Space Station
objects crossing your sky now

SL-16 DEB

Track SL-16 DEB now!
10-day predictions


NORAD ID: 25862
Int'l Code: 1999-039C
Perigee: 648.2 km
Apogee: 884.2 km
Inclination: 97.8 °
Period: 100.0 minutes
Semi major axis: 7137 km
RCS: 0.0838 m2 (small)
Launch date: July 17, 1999
Source: Commonwealth of Independent States (former USSR) (CIS)
Launch site: TYURATAM MISSILE AND SPACE COMPLEX (TTMTR)

Note: This is SATELLITE DEBRIS
aabbcc
Your satellite tracking list
Your tracking list is empty




NASA's NSSDC Master Catalog

Two Line Element Set (TLE):
1 25862U 99039C   21062.59548381  .00000083  00000-0  34904-4 0  9992
2 25862  97.7859 190.3476 0165285 285.2216  73.0751 14.39825090134511
Source of the keplerian elements: AFSPC